EW7774 North Bethesda MD US current weather conditions

sailwx.info

Wind from 096

Air temperature 28.9° C
Dewpoint 22.9° C

Last reported at 2020-Jul-10 22:08 UTC.
Time now 2020-Jul-10 22:42 UTC

Location: N 39°02' W 077°09'.
View on Google Maps.

See reports from other nearby stations

  
Tides and Currents Weather Stations Pressure Air Temp Water Temp Dewpoint Dewpoint Depression Visibility Wind Speed Wind Dir Waves Ship Positions
date/time (UTC)wind fromknots sea level pressurealtimeterstation pressurevisibilityair tempwater tempwave heightnotes
2020-Jul-10 22:08 096 28.9
2020-Jul-10 22:03 059 28.9
2020-Jul-10 21:58 059 28.9
2020-Jul-10 21:53 057 28.9
2020-Jul-10 21:48 129 28.9
2020-Jul-10 21:43 150 28.9
2020-Jul-10 21:38 113 28.9
2020-Jul-10 21:33 113 29.4
2020-Jul-10 21:28 113 29.4
2020-Jul-10 21:23 113 29.4
2020-Jul-10 21:18 102 29.4
2020-Jul-10 21:13 036 29.4
2020-Jul-10 21:08 098 29.4
2020-Jul-10 21:03 057 29.4
2020-Jul-10 20:58 038 29.4
2020-Jul-10 20:50 29.4
2020-Jul-10 20:48 079 30.0
2020-Jul-10 20:43 092 30.0
2020-Jul-10 20:38 136 30.0
2020-Jul-10 20:33 071 30.0
2020-Jul-10 20:28 070 30.0
2020-Jul-10 20:23 101 30.0
2020-Jul-10 20:18 100 30.0
2020-Jul-10 20:13 102 30.0
2020-Jul-10 20:08 173 30.6
2020-Jul-10 20:03 059 30.6
2020-Jul-10 19:58 007 30.0
2020-Jul-10 19:53 008 30.0
2020-Jul-10 19:48 106 30.0
2020-Jul-10 19:43 124 30.0
2020-Jul-10 19:38 220 30.0
2020-Jul-10 19:33 100 30.0
2020-Jul-10 19:28 189 30.0
2020-Jul-10 19:23 088 30.0
2020-Jul-10 19:18 090 30.0
2020-Jul-10 19:13 091 30.0
2020-Jul-10 19:08 091 30.0
2020-Jul-10 19:03 104 30.0
2020-Jul-10 18:58 051 30.0
2020-Jul-10 18:53 036 30.0
2020-Jul-10 18:48 334 30.0
2020-Jul-10 18:43 150 30.0
2020-Jul-10 18:38 116 30.6
2020-Jul-10 18:33 151 30.6
2020-Jul-10 18:28 038 30.6
2020-Jul-10 18:23 122 30.6
2020-Jul-10 18:18 106 30.6
2020-Jul-10 18:13 026 31.1
2020-Jul-10 18:08 012 1 gusting 7 31.1
2020-Jul-10 18:03 050 30.6
2020-Jul-10 17:58 207 30.6
2020-Jul-10 17:53 065 30.6
2020-Jul-10 17:48 095 30.0
2020-Jul-10 17:43 067 30.0
2020-Jul-10 17:38 019 30.0
2020-Jul-10 17:33 057 29.4
2020-Jul-10 17:28 007 29.4
2020-Jul-10 17:23 066 28.9
2020-Jul-10 17:18 014 28.9
2020-Jul-10 17:13 037 28.9
2020-Jul-10 17:08 036 28.9
2020-Jul-10 17:03 031 28.9
2020-Jul-10 16:58 025 28.9
2020-Jul-10 16:53 313 28.3
2020-Jul-10 16:48 121 27.8
2020-Jul-10 16:43 251 27.8
2020-Jul-10 16:38 251 27.8
2020-Jul-10 16:33 248 27.8
2020-Jul-10 16:28 090 27.8
2020-Jul-10 16:23 090 27.8
2020-Jul-10 16:18 079 27.8
2020-Jul-10 16:13 096 27.8
2020-Jul-10 16:08 096 27.2
2020-Jul-10 16:03 092 27.2
2020-Jul-10 15:58 092 27.2
2020-Jul-10 15:53 134 27.2
2020-Jul-10 15:48 138 26.7
2020-Jul-10 15:43 028 26.7
2020-Jul-10 15:38 353 26.7
2020-Jul-10 15:33 104 26.7
2020-Jul-10 15:28 104 27.2
2020-Jul-10 15:23 111 27.2
2020-Jul-10 15:18 359 27.2
2020-Jul-10 15:13 359 27.2
2020-Jul-10 15:08 346 27.2
2020-Jul-10 15:03 079 27.2
2020-Jul-10 14:58 070 27.2
2020-Jul-10 14:53 123 27.2
2020-Jul-10 14:48 041 26.7
2020-Jul-10 14:43 128 26.7
2020-Jul-10 14:38 077 26.7
2020-Jul-10 14:33 036 26.7
2020-Jul-10 14:28 015 26.7
2020-Jul-10 14:23 358 26.1
2020-Jul-10 14:18 038 26.1
2020-Jul-10 14:13 078 26.1
2020-Jul-10 14:08 008 26.1
2020-Jul-10 14:03 020 26.1
2020-Jul-10 13:58 079 26.1
2020-Jul-10 13:53 010 25.6
2020-Jul-10 13:48 090 25.6
2020-Jul-10 13:43 117 25.6
2020-Jul-10 13:38 012 25.6
2020-Jul-10 13:33 281 25.6
2020-Jul-10 13:28 324 25.6
2020-Jul-10 13:23 304 25.6
2020-Jul-10 13:18 221 25.6
2020-Jul-10 13:13 061 25.6
2020-Jul-10 13:08 037 0 gusting 6 25.6
2020-Jul-10 13:03 354 25.6
2020-Jul-10 12:58 114 25.0
2020-Jul-10 12:53 125 25.0
2020-Jul-10 12:48 026 25.0
2020-Jul-10 12:43 032 25.0
2020-Jul-10 12:38 021 24.4
2020-Jul-10 12:33 043 24.4
2020-Jul-10 12:28 347 24.4
2020-Jul-10 12:23 026 23.9
2020-Jul-10 12:18 029 23.9
2020-Jul-10 12:13 097 23.3
2020-Jul-10 12:08 087 23.3
2020-Jul-10 12:03 090 23.3
2020-Jul-10 11:58 090 23.3
2020-Jul-10 11:53 090 23.3
2020-Jul-10 11:48 090 22.8
2020-Jul-10 11:43 090 22.8
2020-Jul-10 11:38 090 22.8
2020-Jul-10 11:33 090 22.8
2020-Jul-10 11:28 090 22.8
2020-Jul-10 11:23 090 22.8
2020-Jul-10 11:18 090 22.8
2020-Jul-10 11:13 100 22.8
2020-Jul-10 11:08 100 22.8
2020-Jul-10 11:03 100 22.8
2020-Jul-10 10:58 098 22.8
2020-Jul-10 10:53 109 22.8
2020-Jul-10 10:48 109 22.8
2020-Jul-10 10:43 109 22.8
2020-Jul-10 10:38 109 22.8
2020-Jul-10 10:33 109 22.8
2020-Jul-10 10:28 109 22.8
2020-Jul-10 10:23 109 22.8
2020-Jul-10 10:18 109 22.8
2020-Jul-10 10:13 109 22.8
2020-Jul-10 10:08 109 22.8
2020-Jul-10 10:03 109 22.8
2020-Jul-10 09:58 109 22.8
2020-Jul-10 09:53 109 22.8
2020-Jul-10 09:48 109 22.8
2020-Jul-10 09:43 109 22.8
2020-Jul-10 09:38 109 22.8
2020-Jul-10 09:33 122 22.2
2020-Jul-10 09:28 122 22.2
2020-Jul-10 09:23 122 22.2
2020-Jul-10 09:18 122 22.2
2020-Jul-10 09:13 122 22.2
2020-Jul-10 09:08 122 22.2
2020-Jul-10 09:03 122 22.2
2020-Jul-10 08:58 122 22.2
2020-Jul-10 08:53 122 22.2
2020-Jul-10 08:48 122 22.2
2020-Jul-10 08:43 122 22.2
2020-Jul-10 08:38 122 22.2
2020-Jul-10 08:33 122 22.2
2020-Jul-10 08:28 122 22.2
2020-Jul-10 08:23 122 22.2
2020-Jul-10 08:18 122 22.2
2020-Jul-10 08:13 122 22.2
2020-Jul-10 08:08 122 22.2
2020-Jul-10 08:03 122 22.2
2020-Jul-10 07:58 122 22.2
2020-Jul-10 07:53 122 22.2
2020-Jul-10 07:48 122 22.2
2020-Jul-10 07:43 122 22.2
2020-Jul-10 07:38 122 22.2
2020-Jul-10 07:33 122 22.2
2020-Jul-10 07:28 122 22.2
2020-Jul-10 07:23 122 22.2
2020-Jul-10 07:18 122 22.2
2020-Jul-10 07:13 122 22.2
2020-Jul-10 07:08 122 22.8
2020-Jul-10 07:03 122 22.8
2020-Jul-10 06:58 122 22.8
2020-Jul-10 06:53 122 22.8
2020-Jul-10 06:48 122 22.8
2020-Jul-10 06:43 122 22.8
2020-Jul-10 06:38 122 22.8
2020-Jul-10 06:33 122 22.8
2020-Jul-10 06:28 122 22.8
2020-Jul-10 06:23 122 22.8
2020-Jul-10 06:18 122 22.8
2020-Jul-10 06:13 122 22.8
2020-Jul-10 06:08 122 23.3
2020-Jul-10 06:03 122 23.3
2020-Jul-10 05:58 122 23.3
2020-Jul-10 05:53 122 23.3
2020-Jul-10 05:48 122 23.3
2020-Jul-10 05:43 122 23.3
2020-Jul-10 05:38 122 23.3
2020-Jul-10 05:33 122 23.3
2020-Jul-10 05:28 122 23.3
2020-Jul-10 05:23 122 23.3
2020-Jul-10 05:18 122 23.3
2020-Jul-10 05:13 122 23.3
2020-Jul-10 05:08 122 23.3
2020-Jul-10 05:03 122 23.9
2020-Jul-10 04:58 122 23.9
2020-Jul-10 04:53 122 23.9
2020-Jul-10 04:48 122 23.9
2020-Jul-10 04:43 122 23.9
2020-Jul-10 04:38 122 23.9
2020-Jul-10 04:33 122 24.4
2020-Jul-10 04:28 122 24.4
2020-Jul-10 04:23 122 24.4
2020-Jul-10 04:18 122 24.4
2020-Jul-10 04:13 122 24.4
2020-Jul-10 04:08 122 25.0
2020-Jul-10 04:03 122 25.0
2020-Jul-10 03:58 122 25.0
2020-Jul-10 03:53 122 25.0
2020-Jul-10 03:48 122 25.0
2020-Jul-10 03:43 113 25.0
2020-Jul-10 03:38 113 25.0
2020-Jul-10 03:33 113 25.0
2020-Jul-10 03:28 109 25.0
2020-Jul-10 03:23 109 25.0
2020-Jul-10 03:18 109 25.0
2020-Jul-10 03:13 109 25.0
2020-Jul-10 03:08 109 25.0
2020-Jul-10 03:03 116 25.0
2020-Jul-10 02:58 103 25.0
2020-Jul-10 02:53 103 25.0
2020-Jul-10 02:48 102 25.0
2020-Jul-10 02:43 106 25.0
2020-Jul-10 02:38 106 25.0
2020-Jul-10 02:33 106 25.0
2020-Jul-10 02:28 106 25.6
2020-Jul-10 02:23 106 25.6
2020-Jul-10 02:18 106 25.6
2020-Jul-10 02:13 106 25.6
2020-Jul-10 02:08 106 26.1
2020-Jul-10 02:03 106 26.1
2020-Jul-10 01:58 106 26.1
2020-Jul-10 01:53 106 26.1
2020-Jul-10 01:48 106 26.1
2020-Jul-10 01:43 106 26.7
2020-Jul-10 01:38 106 26.7
2020-Jul-10 01:33 106 26.7
2020-Jul-10 01:28 106 27.2
2020-Jul-10 01:23 106 27.2
2020-Jul-10 01:18 106 27.2
2020-Jul-10 01:13 106 27.2
2020-Jul-10 01:08 106 27.8
2020-Jul-10 01:03 106 27.8
2020-Jul-10 00:58 106 27.8
2020-Jul-10 00:53 106 27.8
2020-Jul-10 00:48 106 27.8
2020-Jul-10 00:43 106 28.3
2020-Jul-10 00:38 104 28.3
2020-Jul-10 00:33 104 28.3
2020-Jul-10 00:28 059 28.3
2020-Jul-10 00:23 093 28.3
2020-Jul-10 00:18 115 28.9
2020-Jul-10 00:13 119 28.9
2020-Jul-10 00:08 104 28.9
2020-Jul-10 00:03 092 28.9
2020-Jul-09 23:58 093 28.9
2020-Jul-09 23:53 142 28.9
2020-Jul-09 23:48 109 29.4
2020-Jul-09 23:43 141 29.4
2020-Jul-09 23:38 138 29.4
2020-Jul-09 23:33 149 29.4
2020-Jul-09 23:28 088 29.4
2020-Jul-09 23:23 085 29.4
2020-Jul-09 23:18 100 29.4
2020-Jul-09 23:13 123 29.4
2020-Jul-09 23:08 126 0 gusting 4 30.0
2020-Jul-09 23:03 139 30.0
2020-Jul-09 22:58 102 30.0
2020-Jul-09 22:53 079 30.0
2020-Jul-09 22:48 144 30.0
2020-Jul-09 22:43 101 0 gusting 6 30.0
2020-Jul-09 22:38 089 30.0
2020-Jul-09 22:33 360 30.0
2020-Jul-09 22:28 154 30.6
2020-Jul-09 22:23 129 30.6
2020-Jul-09 22:18 065 30.6
2020-Jul-09 22:13 196 30.6
2020-Jul-09 22:08 135 30.6
2020-Jul-09 22:03 137 30.6
2020-Jul-09 21:58 147 30.6
2020-Jul-09 21:53 095 30.6
2020-Jul-09 21:48 128 30.6
2020-Jul-09 21:44 149 30.6
2020-Jul-09 21:38 106 30.6
2020-Jul-09 21:33 325 30.6
2020-Jul-09 21:28 118 30.6
2020-Jul-09 21:23 156 30.6
2020-Jul-09 21:18 136 30.6
2020-Jul-09 21:13 076 1 gusting 6 30.6
2020-Jul-09 21:08 129 30.6
2020-Jul-09 21:03 051 30.6
2020-Jul-09 20:58 090 30.6
2020-Jul-09 20:53 069 30.6
2020-Jul-09 20:48 114 30.6
2020-Jul-09 20:43 098 30.6
2020-Jul-09 20:38 30.6
2020-Jul-09 20:33 133 30.6
2020-Jul-09 20:28 135 30.6
2020-Jul-09 20:23 093 1 gusting 6 30.6
2020-Jul-09 20:18 086 30.6
2020-Jul-09 20:13 077 30.6
2020-Jul-09 20:08 078 30.6
2020-Jul-09 20:03 126 31.1
2020-Jul-09 19:58 112 31.1
2020-Jul-09 19:53 210 31.1
2020-Jul-09 19:48 097 31.1
2020-Jul-09 19:43 136 0 gusting 6 31.1
2020-Jul-09 19:38 196 31.7
2020-Jul-09 19:33 127 31.7
2020-Jul-09 19:28 118 31.7
2020-Jul-09 19:23 072 0 gusting 7 32.2
2020-Jul-09 19:18 205 32.2
2020-Jul-09 19:13 128 32.2
2020-Jul-09 19:08 147 32.2
2020-Jul-09 19:03 167 32.2
2020-Jul-09 18:58 132 32.2
2020-Jul-09 18:53 138 31.7
2020-Jul-09 18:48 138 31.7
2020-Jul-09 18:43 118 32.2
2020-Jul-09 18:38 079 32.2
2020-Jul-09 18:33 109 1 gusting 6 32.2
2020-Jul-09 18:28 134 0 gusting 6 32.2
2020-Jul-09 18:23 100 32.2
2020-Jul-09 18:18 223 0 gusting 6 32.2
2020-Jul-09 18:13 135 2 gusting 6 32.2
2020-Jul-09 18:08 154 1 gusting 6 32.2
2020-Jul-09 18:03 158 32.2
2020-Jul-09 17:58 129 32.2
2020-Jul-09 17:53 171 32.2
2020-Jul-09 17:48 092 32.2
2020-Jul-09 17:43 077 3 gusting 7 32.2
2020-Jul-09 17:38 133 0 gusting 4 32.2
2020-Jul-09 17:33 125 32.2
2020-Jul-09 17:28 111 32.2
2020-Jul-09 17:23 156 31.7
2020-Jul-09 17:18 150 31.7
2020-Jul-09 17:13 170 31.7
2020-Jul-09 17:08 196 1 gusting 7 31.1
2020-Jul-09 17:03 175 31.1
2020-Jul-09 16:58 131 31.1
2020-Jul-09 16:53 193 31.1
2020-Jul-09 16:48 222 31.1
2020-Jul-09 16:43 111 31.1
2020-Jul-09 16:38 085 31.1
2020-Jul-09 16:33 198 31.1
2020-Jul-09 16:28 101 31.1
2020-Jul-09 16:23 131 31.1
2020-Jul-09 16:18 088 0 gusting 6 31.1
2020-Jul-09 16:13 077 0 gusting 3 31.1
2020-Jul-09 16:08 178 31.1
2020-Jul-09 16:03 105 0 gusting 6 31.1
2020-Jul-09 15:58 117 30.6
2020-Jul-09 15:53 122 30.6
2020-Jul-09 15:48 092 30.0
2020-Jul-09 15:43 092 30.6
2020-Jul-09 15:38 069 30.6
2020-Jul-09 15:33 013 30.0
2020-Jul-09 15:28 181 0 gusting 5 30.0
2020-Jul-09 15:23 118 30.6
2020-Jul-09 15:18 096 30.6
2020-Jul-09 15:13 148 30.0
2020-Jul-09 15:08 011 30.0
2020-Jul-09 15:03 165 0 gusting 6 29.4
2020-Jul-09 14:58 109 28.9
2020-Jul-09 14:53 100 28.9
2020-Jul-09 14:48 079 28.9
2020-Jul-09 14:43 073 28.3
2020-Jul-09 14:38 089 28.3
2020-Jul-09 14:33 078 28.3
2020-Jul-09 14:28 136 28.3
2020-Jul-09 14:23 119 27.8
2020-Jul-09 14:18 112 27.8
2020-Jul-09 14:13 106 27.8
2020-Jul-09 14:08 119 27.2
2020-Jul-09 14:03 012 27.2
2020-Jul-09 13:58 007 27.2
2020-Jul-09 13:53 235 27.2
2020-Jul-09 13:48 125 26.7
2020-Jul-09 13:43 126 26.7
2020-Jul-09 13:38 264 26.7
2020-Jul-09 13:33 140 26.7
2020-Jul-09 13:28 140 26.7
2020-Jul-09 13:23 140 26.7
2020-Jul-09 13:18 108 26.1
2020-Jul-09 13:13 108 26.1
2020-Jul-09 13:08 142 26.1
2020-Jul-09 13:03 129 25.6
2020-Jul-09 12:58 129 25.6
2020-Jul-09 12:53 121 25.6
2020-Jul-09 12:48 121 25.0
2020-Jul-09 12:43 123 25.0
2020-Jul-09 12:38 122 25.0
2020-Jul-09 12:33 122 24.4
2020-Jul-09 12:28 122 24.4
2020-Jul-09 12:23 122 24.4
2020-Jul-09 12:18 122 23.9
2020-Jul-09 12:13 122 23.9
2020-Jul-09 12:08 122 23.9
2020-Jul-09 12:03 122 23.3
2020-Jul-09 11:58 122 23.3
2020-Jul-09 11:53 122 22.8
2020-Jul-09 11:48 122 22.8
2020-Jul-09 11:43 122 22.8
2020-Jul-09 11:38 122 22.2
2020-Jul-09 11:33 122 21.7
2020-Jul-09 11:28 122 21.7
2020-Jul-09 11:23 122 21.7
2020-Jul-09 11:18 122 21.1
2020-Jul-09 11:13 122 21.1
2020-Jul-09 11:08 122 21.1
2020-Jul-09 11:03 122 21.1
2020-Jul-09 10:58 122 21.1
2020-Jul-09 10:53 122 20.6
2020-Jul-09 10:48 122 20.6
2020-Jul-09 10:43 122 20.6
2020-Jul-09 10:38 122 20.6
2020-Jul-09 10:33 122 20.6
2020-Jul-09 10:28 122 20.6
2020-Jul-09 10:23 122 20.6
2020-Jul-09 10:18 122 20.6
2020-Jul-09 10:13 122 20.6
2020-Jul-09 10:08 122 20.6
2020-Jul-09 10:03 122 20.6
2020-Jul-09 09:58 122 20.6
2020-Jul-09 09:53 122 20.6
2020-Jul-09 09:48 122 20.6
2020-Jul-09 09:43 122 20.6
2020-Jul-09 09:38 122 20.6
2020-Jul-09 09:33 122 20.6
2020-Jul-09 09:28 122 20.6
2020-Jul-09 09:23 122 21.1
2020-Jul-09 09:18 122 21.1
2020-Jul-09 09:13 122 21.1
2020-Jul-09 09:08 122 21.1
2020-Jul-09 09:03 122 21.1
2020-Jul-09 08:58 122 21.1
2020-Jul-09 08:53 122 21.1
2020-Jul-09 08:48 122 21.1
2020-Jul-09 08:43 122 21.1
2020-Jul-09 08:38 122 21.1
2020-Jul-09 08:33 122 21.1
2020-Jul-09 08:28 122 21.1
2020-Jul-09 08:23 122 21.1
2020-Jul-09 08:18 122 21.1
2020-Jul-09 08:13 122 21.1
2020-Jul-09 08:08 122 21.1
2020-Jul-09 08:03 122 21.1
2020-Jul-09 07:58 122 21.1
2020-Jul-09 07:53 122 21.1
2020-Jul-09 07:48 122 21.1
2020-Jul-09 07:43 122 21.1
2020-Jul-09 07:38 122 21.1
2020-Jul-09 07:33 122 21.1
2020-Jul-09 07:28 122 21.1
2020-Jul-09 07:23 122 21.1
2020-Jul-09 07:18 122 21.1
2020-Jul-09 07:13 122 21.1
2020-Jul-09 07:08 122 21.1
2020-Jul-09 07:03 122 21.1
2020-Jul-09 06:58 122 21.1
2020-Jul-09 06:53 122 21.1
2020-Jul-09 06:48 122 21.1
2020-Jul-09 06:43 122 21.1
2020-Jul-09 06:38 122 21.1
2020-Jul-09 06:33 122 21.1
2020-Jul-09 06:28 122 21.1
2020-Jul-09 06:23 122 21.1
2020-Jul-09 06:18 122 21.7
2020-Jul-09 06:13 122 21.1
2020-Jul-09 06:08 122 21.1
2020-Jul-09 06:03 122 21.7
2020-Jul-09 05:58 122 21.7
2020-Jul-09 05:53 122 21.7
2020-Jul-09 05:48 122 21.7
2020-Jul-09 05:43 122 21.7
2020-Jul-09 05:38 122 21.7
2020-Jul-09 05:33 122 21.7
2020-Jul-09 05:28 122 21.7
2020-Jul-09 05:23 122 21.7
2020-Jul-09 05:18 122 21.7
2020-Jul-09 05:13 122 21.7
2020-Jul-09 05:08 122 21.7
2020-Jul-09 05:03 122 21.7
2020-Jul-09 04:58 122 21.7
2020-Jul-09 04:53 122 21.7
2020-Jul-09 04:48 122 21.7
2020-Jul-09 04:43 122 21.7
2020-Jul-09 04:38 122 21.7
2020-Jul-09 04:33 122 21.7
2020-Jul-09 04:28 122 21.7
2020-Jul-09 04:23 122 21.7
2020-Jul-09 04:18 122 21.7
2020-Jul-09 04:13 122 21.7
2020-Jul-09 04:08 122 22.2
2020-Jul-09 04:03 122 22.2
2020-Jul-09 03:58 122 22.2
2020-Jul-09 03:53 122 22.2
2020-Jul-09 03:48 122 22.2
2020-Jul-09 03:43 122 22.2
2020-Jul-09 03:38 122 22.2
2020-Jul-09 03:33 122 22.2
2020-Jul-09 03:28 122 22.2
2020-Jul-09 03:23 122 22.8
2020-Jul-09 03:18 122 22.8
2020-Jul-09 03:13 122 22.8
2020-Jul-09 03:08 122 22.8
2020-Jul-09 03:03 122 22.8
2020-Jul-09 02:58 122 22.8
2020-Jul-09 02:53 122 22.8
2020-Jul-09 02:48 122 23.3
2020-Jul-09 02:43 122 23.3
2020-Jul-09 02:38 122 23.3
2020-Jul-09 02:33 122 23.3
2020-Jul-09 02:28 122 23.3
2020-Jul-09 02:23 122 23.9
2020-Jul-09 02:18 122 23.9
2020-Jul-09 02:13 122 23.9
2020-Jul-09 02:08 122 23.9
2020-Jul-09 02:03 122 25.0
2020-Jul-09 01:58 122 25.0
2020-Jul-09 01:53 122 25.0
2020-Jul-09 01:48 122 25.0
2020-Jul-09 01:43 122 25.6
2020-Jul-09 01:38 122 25.6
2020-Jul-09 01:33 122 25.6
2020-Jul-09 01:25 25.6
2020-Jul-09 01:20 25.6
2020-Jul-09 01:15 26.1
2020-Jul-09 01:10 26.1
2020-Jul-09 01:05 26.7
2020-Jul-09 01:01 26.7
2020-Jul-09 00:55 27.2
2020-Jul-09 00:50 27.2
2020-Jul-09 00:46 27.8
2020-Jul-09 00:40 27.8
2020-Jul-09 00:35 27.8
2020-Jul-09 00:30 28.3
2020-Jul-09 00:25 28.3
2020-Jul-09 00:20 28.3
2020-Jul-09 00:16 28.3
2020-Jul-09 00:10 28.3
2020-Jul-09 00:05 28.3
2020-Jul-09 00:00 28.9
2020-Jul-08 23:55 28.9
2020-Jul-08 23:50 28.9
2020-Jul-08 23:46 28.9
2020-Jul-08 23:40 28.9
2020-Jul-08 23:35 28.9
2020-Jul-08 23:30 29.4
2020-Jul-08 23:25 29.4
2020-Jul-08 23:20 29.4
2020-Jul-08 23:15 29.4
2020-Jul-08 23:10 29.4
2020-Jul-08 23:05 30.0
2020-Jul-08 23:00 30.0
2020-Jul-08 22:55 30.0
2020-Jul-08 22:50 30.0
2020-Jul-08 22:45 30.0
2020-Jul-08 22:40 30.6
2020-Jul-08 22:35 30.6
2020-Jul-08 22:31 30.6
2020-Jul-08 22:25 30.6
2020-Jul-08 22:20 30.6
2020-Jul-08 22:15 30.6
2020-Jul-08 22:10 30.6
2020-Jul-08 22:05 31.1
2020-Jul-08 22:00 31.1